Time,TemperatureF,DewpointF,PressureIn,WindDirection,WindDirectionDegrees,WindSpeedMPH,WindSpeedGustMPH,Humidity,HourlyPrecipIn,Conditions,Clouds,dailyrainin,SoftwareType,DateUTC
2013-01-14 00:04:00,16.0,12.0,30.29,WNW,283,0.0,0.0,85,0.00,,,0.21,,2013-01-14 05:04:00,
2013-01-14 00:12:00,16.0,12.0,30.29,WNW,283,0.0,0.0,85,0.00,,,0.21,,2013-01-14 05:12:00,
2013-01-14 00:22:00,15.0,11.0,30.29,NW,317,0.0,0.0,85,0.00,,,0.21,,2013-01-14 05:22:00,
2013-01-14 00:32:00,15.0,11.0,30.30,WNW,292,0.0,0.0,85,0.00,,,0.13,,2013-01-14 05:32:00,
2013-01-14 00:42:00,15.0,11.0,30.30,WNW,292,0.0,0.0,85,0.00,,,0.13,,2013-01-14 05:42:00,
2013-01-14 00:52:00,15.0,12.0,30.30,WNW,289,0.0,0.0,86,0.00,,,0.13,,2013-01-14 05:52:00,
2013-01-14 01:03:00,15.0,11.0,30.31,NW,317,0.0,0.0,85,0.00,,,0.13,,2013-01-14 06:03:00,
2013-01-14 01:12:00,15.0,11.0,30.31,NW,317,0.0,0.0,85,0.00,,,0.13,,2013-01-14 06:12:00,
2013-01-14 01:22:00,15.0,12.0,30.31,WNW,294,0.0,0.0,86,0.00,,,0.13,,2013-01-14 06:22:00,
2013-01-14 01:33:00,15.0,11.0,30.33,WNW,284,0.0,0.0,85,0.00,,,0.04,,2013-01-14 06:33:00,
2013-01-14 01:43:00,15.0,11.0,30.33,WNW,284,0.0,0.0,85,0.00,,,0.04,,2013-01-14 06:43:00,
2013-01-14 01:52:00,15.0,11.0,30.33,WNW,294,0.0,0.0,85,0.00,,,0.04,,2013-01-14 06:52:00,
2013-01-14 02:02:00,15.0,11.0,30.33,WNW,294,0.0,0.0,85,0.00,,,0.04,,2013-01-14 07:02:00,
2013-01-14 02:12:00,15.0,11.0,30.33,WNW,294,0.0,0.0,85,0.00,,,0.04,,2013-01-14 07:12:00,
2013-01-14 02:22:00,14.0,10.0,30.34,WNW,290,0.0,0.0,85,0.00,,,0.04,,2013-01-14 07:22:00,
2013-01-14 02:33:00,14.0,10.0,30.35,WNW,288,0.0,0.0,85,0.00,,,0.01,,2013-01-14 07:33:00,
2013-01-14 02:42:00,14.0,10.0,30.35,WNW,288,0.0,0.0,85,0.00,,,0.01,,2013-01-14 07:42:00,
2013-01-14 02:52:00,14.0,10.0,30.36,WNW,291,0.0,0.0,85,0.00,,,0.01,,2013-01-14 07:52:00,
2013-01-14 03:02:00,14.0,11.0,30.37,WNW,283,0.0,0.0,87,0.00,,,0.01,,2013-01-14 08:02:00,
2013-01-14 03:12:00,14.0,11.0,30.37,WNW,283,0.0,0.0,87,0.00,,,0.01,,2013-01-14 08:12:00,
2013-01-14 03:22:00,14.0,11.0,30.37,West,276,0.0,0.0,86,0.00,,,0.01,,2013-01-14 08:22:00,
2013-01-14 03:32:00,14.0,11.0,30.38,WNW,290,0.0,0.0,86,0.00,,,0.01,,2013-01-14 08:32:00,
2013-01-14 03:42:00,14.0,11.0,30.38,WNW,290,0.0,0.0,86,0.00,,,0.01,,2013-01-14 08:42:00,
2013-01-14 03:52:00,14.0,10.0,30.38,WNW,288,0.0,0.0,85,0.00,,,0.01,,2013-01-14 08:52:00,
2013-01-14 04:02:00,14.0,11.0,30.39,WNW,285,0.0,0.0,86,0.00,,,0.01,,2013-01-14 09:02:00,
2013-01-14 04:12:00,14.0,11.0,30.39,WNW,285,0.0,0.0,86,0.00,,,0.01,,2013-01-14 09:12:00,
2013-01-14 04:22:00,14.0,11.0,30.40,WNW,291,0.0,0.0,86,0.00,,,0.01,,2013-01-14 09:22:00,
2013-01-14 04:33:00,14.0,11.0,30.40,WNW,295,0.0,0.0,86,0.00,,,0.01,,2013-01-14 09:33:00,
2013-01-14 04:42:00,14.0,11.0,30.40,WNW,295,0.0,0.0,86,0.00,,,0.01,,2013-01-14 09:42:00,
2013-01-14 04:52:00,14.0,11.0,30.40,WNW,293,0.0,0.0,86,0.00,,,0.01,,2013-01-14 09:52:00,
2013-01-14 05:02:00,14.0,11.0,30.41,WNW,300,0.0,0.0,86,0.00,,,0.01,,2013-01-14 10:02:00,
2013-01-14 05:12:00,14.0,11.0,30.41,WNW,300,0.0,0.0,86,0.00,,,0.01,,2013-01-14 10:12:00,
2013-01-14 05:22:00,14.0,11.0,30.40,WNW,300,0.0,0.0,86,0.00,,,0.01,,2013-01-14 10:22:00,
2013-01-14 05:32:00,14.0,11.0,30.40,NW,308,0.0,0.0,86,0.00,,,0.01,,2013-01-14 10:32:00,
2013-01-14 05:42:00,14.0,11.0,30.40,NW,308,0.0,0.0,86,0.00,,,0.01,,2013-01-14 10:42:00,
2013-01-14 05:52:00,14.0,11.0,30.40,WNW,300,0.0,0.0,86,0.00,,,0.01,,2013-01-14 10:52:00,
2013-01-14 06:02:00,14.0,11.0,30.41,WNW,302,0.0,0.0,86,0.00,,,0.01,,2013-01-14 11:02:00,
2013-01-14 06:12:00,14.0,11.0,30.41,WNW,302,0.0,0.0,86,0.00,,,0.01,,2013-01-14 11:12:00,
2013-01-14 06:22:00,13.0,10.0,30.41,WNW,290,0.0,0.0,86,0.00,,,0.01,,2013-01-14 11:22:00,
2013-01-14 06:32:00,13.0,10.0,30.42,WNW,296,0.0,0.0,87,0.00,,,0.01,,2013-01-14 11:32:00,
2013-01-14 06:42:00,13.0,10.0,30.42,WNW,296,0.0,0.0,87,0.00,,,0.01,,2013-01-14 11:42:00,
2013-01-14 06:53:00,13.0,10.0,30.42,NW,317,0.0,0.0,86,0.00,,,0.01,,2013-01-14 11:53:00,
2013-01-14 07:03:00,13.0,10.0,30.43,NW,321,0.0,0.0,86,0.00,,,0.01,,2013-01-14 12:03:00,
2013-01-14 07:12:00,13.0,10.0,30.43,NW,321,0.0,0.0,86,0.00,,,0.01,,2013-01-14 12:12:00,
2013-01-14 07:23:00,13.0,10.0,30.43,WNW,301,0.0,0.0,86,0.00,,,0.01,,2013-01-14 12:23:00,
2013-01-14 07:33:00,13.0,10.0,30.44,NW,321,0.0,0.0,86,0.00,,,0.01,,2013-01-14 12:33:00,
2013-01-14 07:43:00,13.0,10.0,30.44,NW,321,0.0,0.0,86,0.00,,,0.01,,2013-01-14 12:43:00,
2013-01-14 07:52:00,13.0,10.0,30.44,NW,321,0.0,0.0,86,0.00,,,0.01,,2013-01-14 12:52:00,
2013-01-14 08:03:00,13.0,10.0,30.46,NW,322,0.0,0.0,86,0.00,,,0.01,,2013-01-14 13:03:00,
2013-01-14 08:12:00,13.0,10.0,30.46,NW,322,0.0,0.0,86,0.00,,,0.01,,2013-01-14 13:12:00,
2013-01-14 08:23:00,13.0,10.0,30.46,NW,308,0.0,0.0,86,0.00,,,0.01,,2013-01-14 13:23:00,
2013-01-14 08:33:00,13.0,10.0,30.46,NW,308,0.0,0.0,86,0.00,,,0.01,,2013-01-14 13:33:00,
2013-01-14 08:43:00,13.0,10.0,30.46,NW,308,0.0,0.0,86,0.00,,,0.01,,2013-01-14 13:43:00,
2013-01-14 08:53:00,13.0,10.0,30.47,NNW,333,0.0,0.0,87,0.00,,,0.01,,2013-01-14 13:53:00,
2013-01-14 09:03:00,13.0,10.0,30.48,NNW,330,0.0,0.0,87,0.00,,,0.01,,2013-01-14 14:03:00,
2013-01-14 09:13:00,13.0,10.0,30.48,NNW,330,0.0,0.0,87,0.00,,,0.01,,2013-01-14 14:13:00,
2013-01-14 09:22:00,14.0,11.0,30.49,NNW,346,0.0,0.0,87,0.00,,,0.01,,2013-01-14 14:22:00,
2013-01-14 09:33:00,14.0,11.0,30.49,North,355,0.0,0.0,86,0.00,,,0.01,,2013-01-14 14:33:00,
2013-01-14 09:43:00,14.0,11.0,30.49,North,355,0.0,0.0,86,0.00,,,0.01,,2013-01-14 14:43:00,
2013-01-14 09:53:00,14.0,11.0,30.48,NE,37,0.0,0.0,86,0.00,,,0.01,,2013-01-14 14:53:00,
2013-01-14 10:03:00,15.0,12.0,30.48,NNW,344,0.0,0.0,87,0.00,,,0.01,,2013-01-14 15:03:00,
2013-01-14 10:12:00,15.0,12.0,30.48,NNW,344,0.0,0.0,87,0.00,,,0.01,,2013-01-14 15:12:00,
2013-01-14 10:23:00,15.0,12.0,30.49,North,9,0.0,0.0,86,0.00,,,0.01,,2013-01-14 15:23:00,
2013-01-14 10:33:00,16.0,12.0,30.48,NNE,31,0.0,0.0,85,0.00,,,0.01,,2013-01-14 15:33:00,
2013-01-14 10:43:00,16.0,12.0,30.48,NNE,31,0.0,0.0,85,0.00,,,0.01,,2013-01-14 15:43:00,
2013-01-14 10:53:00,17.0,13.0,30.47,NNE,21,0.0,0.0,84,0.00,,,0.01,,2013-01-14 15:53:00,
2013-01-14 11:03:00,17.0,13.0,30.47,NNE,26,0.0,0.0,84,0.00,,,0.01,,2013-01-14 16:03:00,
2013-01-14 11:12:00,17.0,13.0,30.47,NNE,26,0.0,0.0,84,0.00,,,0.01,,2013-01-14 16:12:00,
2013-01-14 11:23:00,18.0,14.0,30.47,NE,38,0.0,0.0,84,0.00,,,0.01,,2013-01-14 16:23:00,
2013-01-14 11:33:00,18.0,14.0,30.48,NNE,19,0.0,0.0,84,0.00,,,0.01,,2013-01-14 16:33:00,
2013-01-14 11:43:00,18.0,14.0,30.48,NNE,19,0.0,0.0,84,0.00,,,0.01,,2013-01-14 16:43:00,
2013-01-14 11:53:00,18.0,14.0,30.47,NNE,25,0.0,0.0,83,0.00,,,0.01,,2013-01-14 16:53:00,
2013-01-14 12:03:00,18.0,14.0,30.47,NNE,25,0.0,0.0,83,0.00,,,0.01,,2013-01-14 17:03:00,
2013-01-14 12:12:00,18.0,14.0,30.47,NNE,25,0.0,0.0,83,0.00,,,0.01,,2013-01-14 17:12:00,
2013-01-14 12:23:00,19.0,15.0,30.49,North,5,0.0,0.0,83,0.00,,,0.01,,2013-01-14 17:23:00,
2013-01-14 12:33:00,19.0,15.0,30.49,North,5,0.0,0.0,83,0.00,,,0.01,,2013-01-14 17:33:00,
2013-01-14 12:43:00,19.0,15.0,30.49,North,5,0.0,0.0,83,0.00,,,0.01,,2013-01-14 17:43:00,
2013-01-14 12:53:00,19.0,15.0,30.49,NNW,342,0.0,0.0,85,0.00,,,0.01,,2013-01-14 17:53:00,
2013-01-14 13:03:00,19.0,15.0,30.49,NNW,342,0.0,0.0,85,0.00,,,0.01,,2013-01-14 18:03:00,
2013-01-14 13:13:00,19.0,15.0,30.49,NNW,342,0.0,0.0,85,0.00,,,0.01,,2013-01-14 18:13:00,
2013-01-14 13:23:00,20.0,16.0,30.49,NW,313,0.0,0.0,83,0.00,,,0.01,,2013-01-14 18:23:00,
2013-01-14 13:33:00,20.0,16.0,30.48,West,277,0.0,0.0,83,0.00,,,0.00,,2013-01-14 18:33:00,
2013-01-14 13:43:00,20.0,16.0,30.48,West,277,0.0,0.0,83,0.00,,,0.00,,2013-01-14 18:43:00,
2013-01-14 13:52:00,20.0,16.0,30.50,WNW,284,0.0,0.0,83,0.00,,,0.00,,2013-01-14 18:52:00,
2013-01-14 14:03:00,20.0,16.0,30.47,West,279,0.0,0.0,84,0.00,,,0.00,,2013-01-14 19:03:00,
2013-01-14 14:12:00,20.0,16.0,30.47,West,279,0.0,0.0,84,0.00,,,0.00,,2013-01-14 19:12:00,
2013-01-14 14:22:00,20.0,16.0,30.49,NW,308,0.0,0.0,85,0.00,,,0.00,,2013-01-14 19:22:00,
2013-01-14 14:33:00,20.0,16.0,30.49,WNW,290,0.0,0.0,85,0.00,,,0.00,,2013-01-14 19:33:00,
2013-01-14 14:43:00,20.0,16.0,30.49,WNW,290,0.0,0.0,85,0.00,,,0.00,,2013-01-14 19:43:00,
2013-01-14 14:52:00,20.0,16.0,30.48,NNW,328,0.0,0.0,85,0.00,,,0.00,,2013-01-14 19:52:00,
2013-01-14 15:03:00,21.0,17.0,30.48,NNW,342,0.0,0.0,84,0.00,,,0.00,,2013-01-14 20:03:00,
2013-01-14 15:13:00,21.0,17.0,30.48,NNW,342,0.0,0.0,84,0.00,,,0.00,,2013-01-14 20:13:00,
2013-01-14 15:22:00,21.0,17.0,30.49,North,350,0.0,0.0,83,0.00,,,0.00,,2013-01-14 20:22:00,
2013-01-14 15:33:00,21.0,16.0,30.50,NNE,19,0.0,0.0,82,0.00,,,0.00,,2013-01-14 20:33:00,
2013-01-14 15:43:00,21.0,16.0,30.50,NNE,19,0.0,0.0,82,0.00,,,0.00,,2013-01-14 20:43:00,
2013-01-14 15:53:00,21.0,16.0,30.50,West,277,0.0,0.0,82,0.00,,,0.00,,2013-01-14 20:53:00,
2013-01-14 16:03:00,21.0,17.0,30.52,WNW,285,0.0,0.0,83,0.00,,,0.00,,2013-01-14 21:03:00,
2013-01-14 16:12:00,21.0,17.0,30.52,WNW,285,0.0,0.0,83,0.00,,,0.00,,2013-01-14 21:12:00,
2013-01-14 16:23:00,21.0,17.0,30.54,SW,234,0.0,0.0,84,0.00,,,0.00,,2013-01-14 21:23:00,
2013-01-14 16:33:00,22.0,18.0,30.53,SW,217,0.0,0.0,83,0.00,,,0.00,,2013-01-14 21:33:00,
2013-01-14 16:42:00,22.0,18.0,30.53,SW,217,0.0,0.0,83,0.00,,,0.00,,2013-01-14 21:42:00,
2013-01-14 16:53:00,22.0,17.0,30.53,SSW,206,0.0,0.0,82,0.00,,,0.00,,2013-01-14 21:53:00,
2013-01-14 17:03:00,22.0,17.0,30.54,SW,236,0.0,0.0,82,0.00,,,0.00,,2013-01-14 22:03:00,
2013-01-14 17:12:00,22.0,17.0,30.54,SW,236,0.0,0.0,82,0.00,,,0.00,,2013-01-14 22:12:00,
2013-01-14 17:23:00,22.0,17.0,30.53,SW,224,0.0,0.0,82,0.00,,,0.00,,2013-01-14 22:23:00,
2013-01-14 17:33:00,22.0,17.0,30.51,SW,234,0.0,0.0,82,0.00,,,0.00,,2013-01-14 22:33:00,
2013-01-14 17:43:00,22.0,17.0,30.51,SW,234,0.0,0.0,82,0.00,,,0.00,,2013-01-14 22:43:00,
2013-01-14 17:52:00,22.0,17.0,30.51,WNW,289,0.0,0.0,81,0.00,,,0.00,,2013-01-14 22:52:00,
2013-01-14 18:03:00,22.0,17.0,30.50,WNW,289,0.0,0.0,82,0.00,,,0.00,,2013-01-14 23:03:00,
2013-01-14 18:12:00,22.0,17.0,30.50,WNW,289,0.0,0.0,82,0.00,,,0.00,,2013-01-14 23:12:00,
2013-01-14 18:23:00,21.0,16.0,30.50,WNW,289,0.0,0.0,82,0.00,,,0.00,,2013-01-14 23:23:00,
2013-01-14 18:33:00,21.0,16.0,30.50,WNW,289,0.0,0.0,82,0.00,,,0.00,,2013-01-14 23:33:00,
2013-01-14 18:43:00,21.0,16.0,30.50,WNW,289,0.0,0.0,82,0.00,,,0.00,,2013-01-14 23:43:00,
2013-01-14 18:52:00,20.0,16.0,30.50,WNW,289,0.0,0.0,84,0.00,,,0.00,,2013-01-14 23:52:00,
2013-01-14 19:02:00,20.0,16.0,30.50,WNW,289,0.0,0.0,85,0.00,,,0.00,,2013-01-15 00:02:00,
2013-01-14 19:12:00,20.0,16.0,30.50,WNW,289,0.0,0.0,85,0.00,,,0.00,,2013-01-15 00:12:00,
2013-01-14 19:22:00,19.0,16.0,30.50,WNW,289,0.0,0.0,87,0.00,,,0.00,,2013-01-15 00:22:00,
2013-01-14 19:33:00,19.0,16.0,30.49,WNW,289,0.0,0.0,88,0.00,,,0.00,,2013-01-15 00:33:00,
2013-01-14 19:43:00,19.0,16.0,30.49,WNW,289,0.0,0.0,88,0.00,,,0.00,,2013-01-15 00:43:00,
2013-01-14 19:52:00,19.0,16.0,30.49,WNW,289,0.0,0.0,89,0.00,,,0.00,,2013-01-15 00:52:00,
2013-01-14 20:02:00,19.0,16.0,30.49,WNW,289,0.0,0.0,89,0.00,,,0.00,,2013-01-15 01:02:00,
2013-01-14 20:12:00,19.0,16.0,30.49,WNW,289,0.0,0.0,89,0.00,,,0.00,,2013-01-15 01:12:00,
2013-01-14 20:22:00,18.0,15.0,30.49,WNW,289,0.0,0.0,89,0.00,,,0.00,,2013-01-15 01:22:00,
2013-01-14 20:32:00,18.0,15.0,30.49,WNW,289,0.0,0.0,89,0.00,,,0.00,,2013-01-15 01:32:00,
2013-01-14 20:43:00,18.0,15.0,30.49,WNW,289,0.0,0.0,89,0.00,,,0.00,,2013-01-15 01:43:00,
2013-01-14 20:52:00,18.0,16.0,30.48,WNW,289,0.0,0.0,90,0.00,,,0.00,,2013-01-15 01:52:00,
2013-01-14 21:02:00,18.0,16.0,30.48,WNW,289,0.0,0.0,90,0.00,,,0.00,,2013-01-15 02:02:00,
2013-01-14 21:12:00,18.0,16.0,30.48,WNW,289,0.0,0.0,90,0.00,,,0.00,,2013-01-15 02:12:00,
2013-01-14 21:22:00,17.0,15.0,30.47,WNW,289,0.0,0.0,90,0.00,,,0.00,,2013-01-15 02:22:00,
2013-01-14 21:32:00,17.0,15.0,30.48,WNW,289,0.0,0.0,91,0.00,,,0.00,,2013-01-15 02:32:00,
2013-01-14 21:42:00,17.0,15.0,30.48,WNW,289,0.0,0.0,91,0.00,,,0.00,,2013-01-15 02:42:00,
2013-01-14 21:52:00,17.0,15.0,30.48,WNW,289,0.0,0.0,91,0.00,,,0.00,,2013-01-15 02:52:00,
2013-01-14 22:02:00,17.0,15.0,30.47,WNW,289,0.0,0.0,91,0.00,,,0.00,,2013-01-15 03:02:00,
2013-01-14 22:12:00,17.0,15.0,30.47,WNW,289,0.0,0.0,91,0.00,,,0.00,,2013-01-15 03:12:00,
2013-01-14 22:22:00,17.0,15.0,30.47,WNW,289,0.0,0.0,91,0.00,,,0.00,,2013-01-15 03:22:00,
2013-01-14 22:33:00,16.0,14.0,30.47,WNW,289,0.0,0.0,91,0.00,,,0.00,,2013-01-15 03:33:00,
2013-01-14 22:42:00,16.0,14.0,30.47,WNW,289,0.0,0.0,91,0.00,,,0.00,,2013-01-15 03:42:00,
2013-01-14 22:52:00,16.0,14.0,30.47,WNW,289,0.0,0.0,91,0.00,,,0.00,,2013-01-15 03:52:00,
2013-01-14 23:02:00,16.0,14.0,30.47,WNW,289,0.0,0.0,91,0.00,,,0.00,,2013-01-15 04:02:00,
2013-01-14 23:12:00,16.0,14.0,30.47,WNW,289,0.0,0.0,91,0.00,,,0.00,,2013-01-15 04:12:00,
2013-01-14 23:22:00,16.0,14.0,30.47,WNW,289,0.0,0.0,91,0.00,,,0.00,,2013-01-15 04:22:00,
2013-01-14 23:32:00,16.0,14.0,30.47,WNW,289,0.0,0.0,91,0.00,,,0.00,,2013-01-15 04:32:00,
2013-01-14 23:42:00,16.0,14.0,30.47,WNW,289,0.0,0.0,91,0.00,,,0.00,,2013-01-15 04:42:00,
2013-01-14 23:52:00,16.0,14.0,30.47,WNW,289,0.0,0.0,92,0.00,,,0.00,,2013-01-15 04:52:00,